Location: The Saddle
(36.8333°N, 80.3417°W)
Time: 07:31:18
(UTC-04:00)

Vanguard 2 Rocket - Pass Details

Date: 31 January 2023
Orbit: 555 x 3316 km, 32.9° (Epoch: 27 March)

Event Time Altitude Azimuth Distance (km) Brightness Sun altitude
Rises 14:48:53 0° 269° (W) 2,743 9.9 27.3°
Reaches altitude 10° 14:50:57 10° 261° (W) 1,916 9.4 27.1°
Maximum altitude 14:54:57 44° 189° (S) 973 8.4 26.6°
Drops below altitude 10° 15:00:37 10° 118° (ESE) 2,711 9.3 25.9°
Sets 15:04:05 0° 113° (ESE) 4,060 10.1 25.5°
